Wind_Speed
7 20 18 18 19 18 18 17 17 18 19 20 19 20 19 19 18 17 15 17 17 15 13 11 11 12 15 16 15 15 15 14 14 14 14 16 16 19 21 23 20 17 16
11 21 19 19 20 20 18 17 17 17 18 20 19 19 18 17 16 15 16 17 16 12 11 11 11 12 13 12 13 13 13 13 14 16 15 15 17 17 18 18 20 18 19
12 20 20 21 22 22 21 19 18 18 17 19 19 18 18 18 19 17 16 14 12 10 11 12 12 10 10 11 14 17 15 15 16 17 16 16 17 17 16 14 14 15 16
16 20 21 22 21 21 20 20 20 20 18 19 19 18 18 18 17 16 14 12 11 11 11 13 14 14 13 15 18 19 17 17 18 18 19 20 20 20 17 17 15 14 15
21 21 21 22 23 21 21 20 21 21 19 19 20 16 16 16 15 15 12 11 12 12 12 14 16 16 16 18 20 19 17 18 19 22 20 22 21 19 16 17 15 16 15
21 19 20 21 22 20 22 21 21 23 21 21 20 17 14 15 15 14 13 12 13 12 13 12 13 16 16 19 17 16 17 15 16 18 18 18 18 16 17 16 17 16 16
18 18 18 21 21 23 22 22 22 23 22 21 19 19 14 14 13 13 13 14 14 12 12 13 15 17 15 15 16 16 14 14 10 13 16 16 13 20 20 18 15 15 18
12 16 18 19 20 21 23 23 24 24 23 22 18 17 17 15 14 13 13 14 14 14 13 14 16 17 16 15 15 16 13 10 15 17 16 16 18 17 18 17 14 15 17
3 14 18 20 20 20 21 23 24 24 23 24 21 18 17 16 15 14 13 15 14 14 14 16 19 16 17 17 18 18 14 18 20 20 16 14 11 12 13 14 15 16 16
5 5 13 20 21 21 22 22 24 24 25 26 22 20 17 17 16 16 15 15 16 14 16 20 17 16 19 17 19 18 20 19 17 16 13 13 12 13 12 13 14 13 14
11 11 11 15 23 25 24 24 24 25 28 27 23 21 20 18 18 16 17 17 17 17 18 19 17 17 20 19 17 19 20 17 16 16 12 13 13 13 13 12 12 13 12
18 17 16 16 20 26 27 25 25 25 28 28 26 24 22 22 21 20 19 17 17 19 19 18 19 21 22 19 21 20 19 17 18 17 15 14 14 14 13 14 14 15 14
17 18 21 20 19 23 28 28 26 27 29 30 28 28 22 22 23 21 22 19 19 20 21 19 22 22 21 22 22 20 19 18 19 16 13 14 14 14 13 13 14 14 15
22 20 18 22 21 20 24 28 27 29 31 32 31 31 26 26 25 24 25 22 21 22 24 20 23 24 26 25 22 23 20 20 19 17 14 14 13 14 14 14 14 14 15
22 23 22 20 23 21 22 25 27 28 32 34 34 33 30 30 29 27 29 25 23 24 25 24 24 27 28 27 24 22 21 22 21 17 13 13 14 13 15 14 14 15 14
25 24 23 24 24 23 21 22 25 29 29 33 36 36 34 33 32 30 33 29 25 26 26 28 26 28 28 27 25 22 23 23 20 17 16 16 15 14 13 14 15 14 14
26 24 22 23 24 24 22 22 21 25 27 31 34 35 36 36 35 34 36 32 30 28 28 28 28 27 28 27 25 24 25 23 22 18 17 15 15 15 15 14 16 14 14
20 22 23 21 23 22 22 22 21 22 25 29 31 34 38 39 38 38 40 38 34 32 31 30 32 30 31 29 26 25 25 24 22 19 18 17 16 16 15 13 12 12 12
14 17 18 19 20 21 21 21 21 23 27 27 26 32 36 37 40 41 42 44 40 37 35 34 35 34 33 30 28 25 24 23 22 20 17 18 16 17 16 16 16 14 12
6 9 12 14 15 16 20 20 21 23 24 25 27 29 34 36 29 29 38 41 44 41 39 35 37 34 37 34 29 25 22 21 20 19 18 19 17 17 16 15 15 13 12
7 3 8 12 14 17 19 21 22 23 23 23 25 30 33 37 36 22 22 28 41 43 44 41 39 36 29 36 31 19 15 15 17 18 18 19 18 17 17 16 14 12 10
8 6 3 7 11 14 16 18 16 26 26 25 24 24 27 32 31 28 15 22 26 31 39 42 38 30 27 38 20 14 3 3 9 15 18 18 18 17 17 15 13 10 8
10 7 3 1 6 11 13 15 15 17 12 19 24 23 24 25 26 27 28 18 29 25 32 43 44 35 27 32 34 10 3 4 7 9 15 17 18 18 16 14 13 10 9
15 8 4 2 3 9 13 15 19 14 12 20 24 29 32 30 31 30 33 37 29 33 28 36 42 37 34 33 34 14 10 17 4 3 10 18 18 18 18 17 14 12 10
20 15 9 4 5 8 11 14 18 19 13 11 19 19 22 25 28 34 32 36 48 45 37 37 37 36 35 37 34 21 20 14 13 5 3 7 16 20 19 18 15 13 12
24 24 17 9 8 10 12 15 18 19 16 11 15 18 20 23 28 34 37 34 40 47 40 41 40 38 36 35 35 30 28 10 10 6 3 4 11 15 19 19 17 15 13
Wind_Direction
216 174 180 178 178 172 169 159 151 149 146 143 140 143 147 149 147 146 147 144 136 128 127 127 127 123 113 110 117 114 115 116 118 119 122 111 102 94 91 92 97 96 100
171 175 179 180 177 174 171 166 162 160 154 148 147 146 149 148 150 155 151 141 141 143 139 141 140 133 114 110 119 119 123 131 135 131 131 116 110 101 95 95 95 88 87
173 176 181 182 182 178 174 174 172 164 160 155 150 152 151 154 156 153 151 144 142 143 149 154 155 146 137 130 124 123 123 127 128 129 132 123 116 108 96 96 96 92 88
187 177 183 187 188 184 181 179 176 167 169 167 159 156 158 157 157 156 153 146 142 143 149 154 156 154 140 136 130 122 117 123 130 129 124 123 119 111 100 89 89 93 89
174 181 184 189 195 190 185 182 179 172 174 172 161 168 164 163 163 165 165 147 144 143 145 148 156 149 150 140 133 125 120 112 124 119 117 115 111 105 103 95 90 91 97
180 186 188 193 197 195 189 184 183 178 178 172 166 169 169 170 170 171 173 152 150 151 151 156 151 152 154 150 140 133 131 130 112 109 111 111 103 105 103 105 90 97 114
188 196 197 201 202 200 197 190 189 189 182 180 175 168 176 168 177 181 165 156 152 157 156 154 151 153 151 145 144 151 143 159 147 129 112 116 121 106 102 107 99 94 103
208 208 208 208 212 210 207 203 199 198 189 181 172 176 184 190 194 172 165 157 157 161 158 157 156 155 152 147 148 148 152 148 148 135 122 113 113 107 103 100 119 87 91
190 223 220 215 213 220 215 211 207 203 192 184 181 180 184 189 182 173 169 163 166 163 160 160 156 158 158 157 150 145 146 140 131 129 134 131 122 118 119 114 111 97 98
198 214 228 224 218 219 222 219 213 205 198 190 186 183 185 189 182 175 175 171 169 165 159 163 165 166 166 164 152 153 148 137 135 139 141 141 112 115 129 134 124 121 99
218 225 233 225 225 223 225 223 216 212 202 196 191 187 178 189 184 182 178 175 173 169 167 165 164 168 164 159 160 165 156 156 143 142 144 142 131 126 119 128 123 121 109
238 226 223 229 224 225 225 225 220 214 206 198 192 188 185 189 191 187 178 179 177 176 171 169 167 176 163 161 160 161 161 159 142 144 137 137 132 123 123 122 116 118 112
228 235 228 225 226 224 225 225 223 216 215 200 195 193 198 197 193 187 178 182 181 186 176 171 175 176 171 166 166 163 162 150 147 140 145 143 132 130 129 123 121 118 114
247 240 236 226 225 225 226 228 224 218 215 202 200 199 195 196 196 190 183 183 187 188 181 179 176 179 174 173 169 166 161 153 150 146 153 144 139 133 131 125 124 119 118
250 243 237 227 221 221 221 226 227 221 217 212 203 204 198 196 199 195 185 185 189 192 189 183 174 173 168 168 167 165 159 154 150 149 153 152 147 137 134 133 127 122 120
250 242 235 230 224 221 222 220 225 223 217 214 210 208 206 203 203 197 189 187 192 196 190 187 174 171 170 169 165 164 159 156 154 155 156 151 144 148 139 136 128 126 123
258 253 241 228 224 222 221 219 219 221 214 214 215 215 209 206 206 201 193 190 191 193 195 189 180 177 175 172 167 164 161 160 157 158 161 160 154 146 144 133 133 132 120
259 251 243 238 227 224 222 216 215 217 207 209 214 221 215 210 208 204 195 193 191 193 195 189 181 177 176 174 168 166 164 165 163 163 169 165 160 151 146 154 139 145 124
261 250 240 228 225 222 218 218 215 215 212 212 219 223 224 215 210 207 198 195 193 191 193 194 182 182 179 174 168 166 166 170 170 173 175 173 163 164 160 151 149 150 128
254 237 224 209 210 215 213 210 197 201 204 211 219 217 219 216 212 203 198 195 193 190 193 193 183 184 182 173 164 163 165 168 174 179 180 179 173 170 172 174 173 161 131
58 143 176 183 195 196 189 177 186 183 189 198 210 216 215 217 213 209 206 196 188 187 190 192 182 174 164 171 155 147 157 172 177 180 183 185 182 176 182 182 182 177 162
43 55 96 156 183 190 197 195 190 197 196 194 189 196 209 213 208 201 197 191 191 187 188 185 178 166 165 172 160 134 132 145 193 187 185 187 188 187 186 187 188 184 172
39 35 44 182 205 206 208 202 198 197 197 204 209 201 200 202 198 190 195 181 196 196 191 186 181 173 169 176 171 150 144 188 141 202 196 190 189 188 189 190 187 186 181
12 15 357 312 267 229 225 217 211 204 193 211 215 224 229 226 223 215 206 198 192 212 204 190 186 181 174 176 179 183 175 143 159 153 207 203 200 201 200 197 196 192 188
26 23 14 331 264 248 242 236 230 226 230 233 224 216 225 232 224 214 213 197 185 194 209 197 189 187 184 180 183 178 159 156 146 140 162 175 207 209 208 206 202 198 192
21 25 17 357 300 279 256 246 238 233 227 210 211 213 224 227 228 214 212 209 198 190 204 200 197 193 189 188 186 186 169 163 168 146 117 137 175 202 205 204 204 203 200
Height
760 762 766 769 771 774 777 779 781 783 784 786 789 791 793 795 796 799 801 804 806 808 810 812 813 814 815 816 818 819 820 822 823 825 825 825 826 827 826 827 827 827 829
758 761 765 768 771 773 777 779 781 783 785 787 789 792 794 796 798 800 802 804 806 808 811 813 815 816 817 818 820 820 822 823 824 826 826 828 828 828 829 828 828 831 832
759 761 764 767 770 772 775 779 781 784 786 788 791 792 794 796 799 800 802 805 807 809 811 813 816 817 819 820 821 822 823 824 826 827 828 828 829 830 830 831 833 834 833
757 761 764 767 769 772 774 777 780 784 786 789 790 793 795 797 799 801 803 806 807 810 812 814 816 818 821 822 823 824 825 826 827 828 829 830 831 832 833 834 835 834 834
757 760 763 766 769 771 774 777 779 782 786 788 790 792 795 798 800 802 805 807 808 810 812 814 816 818 821 823 824 825 826 828 828 829 831 832 833 834 836 836 836 836 837
759 761 763 766 768 771 773 776 779 781 784 787 789 792 795 798 800 801 804 807 809 812 814 815 817 820 821 823 825 827 829 830 831 832 833 834 835 836 836 837 838 839 840
760 762 764 766 768 770 773 776 779 781 784 786 789 792 795 798 800 802 805 807 809 812 814 816 818 821 822 824 826 828 831 832 833 835 836 836 837 838 839 840 841 842 842
761 763 764 766 768 771 772 775 777 780 783 785 789 792 795 798 801 803 806 808 810 812 815 817 819 822 824 826 827 829 832 833 834 836 837 838 840 841 842 843 844 844 845
760 761 763 765 766 769 772 774 776 779 781 784 788 791 795 798 801 804 806 808 811 813 815 818 820 823 825 827 829 831 834 835 836 837 839 840 841 844 845 846 846 847 848
759 760 761 762 764 766 769 772 775 777 780 783 786 790 794 798 801 804 806 809 810 814 816 818 821 824 826 828 830 833 834 836 838 840 841 842 844 846 847 848 849 850 851
757 758 758 759 761 764 766 769 773 775 778 782 785 788 790 796 800 804 806 809 811 814 816 819 821 825 826 829 832 834 836 838 840 843 844 845 846 848 849 850 851 852 853
754 755 756 756 757 759 762 765 769 773 776 779 783 786 788 793 797 802 806 809 811 814 817 819 822 825 826 829 832 835 838 840 842 844 845 846 848 849 851 852 853 853 854
748 750 752 752 753 755 758 761 765 769 772 777 780 782 786 792 795 799 804 808 811 813 816 818 821 824 827 831 833 836 839 841 844 846 848 849 850 851 853 854 855 855 856
742 744 746 748 750 751 754 756 760 764 768 773 776 780 782 789 794 797 802 806 810 812 815 817 821 824 827 831 833 836 840 842 845 847 849 850 851 853 854 855 857 857 858
736 738 740 743 745 747 749 752 755 759 762 767 772 776 779 784 790 795 799 804 808 811 814 818 821 824 827 830 834 836 840 843 846 848 851 852 853 855 855 857 858 859 860
729 732 735 738 740 743 745 747 750 754 758 762 766 771 776 779 785 791 796 800 806 810 812 817 820 824 828 831 834 837 840 843 846 849 851 852 854 857 858 859 859 861 862
723 726 729 732 736 739 741 744 746 750 754 758 763 768 772 775 779 785 792 797 801 806 810 816 820 824 828 832 835 838 841 844 847 850 851 853 855 857 859 860 861 862 862
718 719 723 727 731 735 738 740 743 746 750 754 759 764 767 771 774 779 784 791 796 801 807 812 817 822 826 831 835 838 841 844 847 850 852 854 855 857 859 861 862 863 864
714 715 717 721 726 730 734 737 740 743 746 750 755 759 764 768 771 774 777 783 788 796 803 808 813 819 824 829 834 839 842 844 847 850 852 855 856 857 859 860 862 863 864
711 712 713 717 722 727 731 735 738 741 744 748 751 754 759 763 768 770 771 776 782 790 796 804 810 816 821 827 833 838 842 845 847 849 852 854 856 858 860 861 862 864 866
711 711 713 715 720 724 729 733 737 738 741 744 747 750 752 757 762 770 772 778 779 783 787 796 806 812 820 823 829 839 843 845 847 849 851 853 855 857 859 861 862 863 865
715 715 715 717 720 722 726 729 733 734 738 741 744 747 749 753 759 764 772 766 781 786 787 789 798 808 814 819 825 834 843 848 847 848 850 852 854 856 858 860 861 863 864
717 717 718 719 720 723 726 727 731 733 737 740 743 746 748 750 754 759 764 765 773 785 789 787 790 798 806 814 818 821 837 839 844 847 849 850 852 854 857 858 860 861 863
720 719 719 720 720 723 725 726 728 729 731 732 736 741 744 746 749 752 755 753 765 777 790 789 789 793 798 806 814 816 818 821 835 845 847 848 850 853 854 856 859 860 861
723 721 720 719 721 722 723 724 726 727 730 732 734 736 739 742 744 747 749 749 749 757 784 785 786 790 795 800 804 810 816 819 822 829 840 843 847 850 853 855 857 859 860
726 722 720 719 719 721 722 722 723 724 726 729 732 733 735 737 740 742 744 745 749 749 765 774 781 786 791 797 801 805 808 812 818 821 832 839 842 847 850 853 855 857 859